Terminal Aerodrome Forecast
Issued by NWS Des Moines, IA

Current Version | Previous Version | Text Only | Print | Product List | Glossary On
Versions: 1 2 3 4 5 6 7 8 9 10 11 12 13 14 15 16 17 18 19 20 21 22 23 24 25 26 27 28 29 30 31 32 33 34 35 36 37 38
000
FTUS43 KDMX 190520
TAFDSM
TAF
KDSM 190520Z 1906/2006 14008KT P6SM SCT035
     FM191000 15006KT 3SM BR SCT040
     FM191400 18018G26KT P6SM BKN030
     FM192200 19012KT P6SM SCT030
     FM200200 20009KT P6SM BKN025=

USA.gov is the U.S. government's official web portal to all federal, state and local government web resources and services.